This is the latest recevied weather packets stored in our database for station/object 9W2CHF-4. If no packets are shown the sender has not sent any weather packets the latest 10 day(s).
| Time | Temp. | Humidity | Pressure | Rain* | Wind** | Luminosity | Snow |
|---|---|---|---|---|---|---|---|
| 1777770506 | 31.67° C | 52% | 1010.7 hPa | - | - | - | - |
| 1777769606 | 31.67° C | 52% | 1010.6 hPa | - | - | - | - |
| 1777768706 | 31.67° C | 52% | 1010.2 hPa | - | - | - | - |
| 1777767806 | 31.67° C | 60% | 1009.8 hPa | - | - | - | - |
| 1777766906 | 31.67° C | 67% | 1009.6 hPa | - | - | - | - |
| 1777766006 | 31.67° C | 66% | 1009.4 hPa | - | - | - | - |
| 1777765106 | 31.11° C | 71% | 1009.3 hPa | - | - | - | - |
| 1777764206 | 31.67° C | 72% | 1009.1 hPa | - | - | - | - |
| 1777763306 | 31.11° C | 70% | 1009 hPa | - | - | - | - |
| 1777762406 | 31.67° C | 72% | 1008.9 hPa | - | - | - | - |
| 1777761505 | 31.67° C | 72% | 1008.8 hPa | - | - | - | - |
| 1777760605 | 31.67° C | 73% | 1008.9 hPa | - | - | - | - |
| 1777759705 | 31.67° C | 73% | 1008.8 hPa | - | - | - | - |
| 1777758805 | 31.67° C | 73% | 1008.7 hPa | - | - | - | - |
| 1777757905 | 31.67° C | 72% | 1008.9 hPa | - | - | - | - |
| 1777757005 | 31.67° C | 72% | 1008.9 hPa | - | - | - | - |
| 1777756104 | 31.67° C | 73% | 1009 hPa | - | - | - | - |
| 1777755208 | 31.67° C | 73% | 1009.1 hPa | - | - | - | - |
| 1777754307 | 31.67° C | 74% | 1009.1 hPa | - | - | - | - |
| 1777753407 | 32.22° C | 73% | 1008.9 hPa | - | - | - | - |
| 1777752507 | 32.22° C | 74% | 1008.8 hPa | - | - | - | - |
| 1777751607 | 32.22° C | 72% | 1009 hPa | - | - | - | - |
| 1777750707 | 32.22° C | 73% | 1008.9 hPa | - | - | - | - |
| 1777749807 | 32.22° C | 73% | 1009.1 hPa | - | - | - | - |
| 1777748907 | 32.22° C | 73% | 1009.1 hPa | - | - | - | - |
* Rain since midnight (hover to see other rain measurements)
** Current wind speed in m/s (hover to see current wind gust speed)